Location: Knowlton
(51.2333°N, 1.2667°E)
Time: 10:39:28
(UTC+00:00)

Cosmos 676 Rocket - Pass Details

Date: 18 April 2021
Orbit: 755 x 783 km, 74.0° (Epoch: 16 May)

Event Time Altitude Azimuth Distance (km) Brightness Sun altitude
Exits shadow 22:07:09 48° 206° (SSW) 988 4.3 -23.4°
Maximum altitude 22:08:39 88° 291° (WNW) 765 3.9 -23.5°
Drops below altitude 10° 22:13:52 10° 24° (NNE) 2,293 6.9 -23.9°
Sets 22:16:14 0° 25° (NNE) 3,222 7.8 -24.1°
